IW4DZV-13 Weather Reports


Display with metric or nautical units.
time (UTC)temp
F
wind
direction
speed
MPH
gust
MPH
rain 1hr
in
rain 24hr
in
rain mn
in
humidity
%
barometer
mb
20260506184552 62 360 1.0 0.0 0.00 0.00 0.48 77 1008.3
20260506183056 62 360 0.0 0.0 0.00 0.00 0.48 77 1008.4
20260506181612 63 360 0.0 0.0 0.00 0.00 0.48 76 1008.3
20260506180048 63 360 1.0 0.0 0.00 0.00 0.48 75 1008.1
20260506174547 63 360 1.0 0.0 0.00 0.00 0.48 76 1007.9
20260506173056 64 360 1.0 0.0 0.00 0.00 0.48 76 1007.8
20260506171547 64 360 1.0 0.0 0.00 0.00 0.48 76 1007.7
20260506170049 65 360 1.0 0.0 0.00 0.00 0.48 76 1007.6
20260506164548 65 360 1.0 0.0 0.00 0.00 0.48 76 1007.6
20260506163046 65 360 0.0 0.0 0.00 0.00 0.48 76 1007.6
20260506161547 65 360 1.0 0.0 0.00 0.00 0.48 76 1007.7
20260506160052 66 360 1.0 0.0 0.00 0.00 0.48 75 1007.7
20260506154544 66 360 1.0 0.0 0.00 0.00 0.47 74 1007.7
20260506153105 66 360 1.0 0.0 0.00 0.00 0.47 75 1007.7
20260506151545 66 360 1.0 0.0 0.00 0.00 0.47 74 1007.6
20260506150049 66 360 1.0 0.0 0.00 0.00 0.47 75 1007.6
20260506144544 66 360 1.0 0.0 0.00 0.00 0.47 75 1007.7
20260506143040 66 360 1.0 0.0 0.00 0.00 0.46 78 1007.7
20260506141538 65 360 1.0 0.0 0.00 0.00 0.46 79 1007.8
20260506140038 65 360 0.0 0.0 0.00 0.00 0.46 81 1007.9
20260506134537 65 360 1.0 0.0 0.00 0.00 0.45 80 1008.2
20260506133035 65 360 1.0 0.0 0.00 0.00 0.45 83 1008.2
20260506131539 64 360 1.0 0.0 0.00 0.00 0.44 84 1008.4
20260506130034 63 360 0.0 0.0 0.00 0.00 0.44 86 1008.5
20260506124534 63 360 0.0 0.0 0.00 0.00 0.43 87 1008.6
20260506123033 64 360 0.0 0.0 0.00 0.00 0.42 83 1008.8
20260506121533 66 360 1.0 0.0 0.00 0.00 0.41 78 1008.7
20260506120035 67 360 1.0 0.0 0.00 0.00 0.41 75 1008.4
20260506114531 67 360 1.0 0.0 0.00 0.00 0.41 74 1008.6
20260506113038 67 360 1.0 0.0 0.00 0.00 0.41 76 1008.6
20260506111529 67 360 1.0 0.0 0.00 0.00 0.41 76 1008.8
20260506110025 67 360 2.0 0.0 0.00 0.00 0.41 81 1008.9
20260506104524 66 360 3.0 0.0 0.00 0.00 0.41 82 1009.0
20260506103017 64 360 2.0 0.0 0.00 0.00 0.41 88 1009.4
20260506101513 63 360 2.0 0.0 0.00 0.00 0.41 89 1009.3
20260506100011 61 360 2.0 0.0 0.00 0.00 0.41 90 1009.3
20260506094508 61 360 2.0 0.0 0.00 0.00 0.40 91 1009.3
20260506093005 60 360 2.0 0.0 0.00 0.00 0.40 90 1009.3
20260506091505 59 360 3.0 0.0 0.00 0.00 0.39 90 1009.4
20260506090002 59 360 3.0 0.0 0.00 0.00 0.39 91 1009.5
20260506084501 59 360 1.0 0.0 0.00 0.00 0.39 91 1009.7
20260506083100 58 360 1.0 0.0 0.00 0.00 0.38 91 1009.9
20260506081603 58 360 1.0 0.0 0.00 0.00 0.38 92 1009.5
20260506080106 58 360 2.0 0.0 0.00 0.00 0.37 92 1009.3
20260506073054 57 360 2.0 0.0 0.00 0.00 0.37 92 1009.6
20260506071602 57 360 2.0 0.0 0.00 0.00 0.36 92 1009.5
20260506061550 57 360 0.0 0.0 0.00 0.00 0.33 93 1009.8
20260506044539 57 360 1.0 0.0 0.00 0.00 0.21 93 1010.5
20260506043039 57 360 2.0 0.0 0.00 0.00 0.17 93 1010.0
20260506041538 56 360 2.0 0.0 0.00 0.00 0.15 93 1010.1
20260506040038 56 360 2.0 0.0 0.00 0.00 0.15 93 1009.9
20260506034550 56 360 0.0 0.0 0.00 0.00 0.15 93 1009.9
20260506033037 56 360 0.0 0.0 0.00 0.00 0.15 92 1009.8
20260506031535 56 360 0.0 0.0 0.00 0.00 0.14 92 1009.9
20260506030040 56 360 0.0 0.0 0.00 0.00 0.13 92 1010.0
20260506024554 56 360 0.0 0.0 0.00 0.00 0.13 92 1010.3
20260506023030 56 360 0.0 0.0 0.00 0.00 0.13 92 1010.6
20260506021528 56 360 0.0 0.0 0.00 0.00 0.10 92 1010.7
20260506020027 56 360 0.0 0.0 0.00 0.00 0.06 92 1010.9
20260506014524 56 360 0.0 0.0 0.00 0.00 0.02 92 1011.0
20260506013034 56 360 0.0 0.0 0.00 0.00 0.01 92 1011.1
20260506011522 56 360 0.0 0.0 0.00 0.00 0.00 91 1011.3
20260506010025 56 360 1.0 0.0 0.00 0.00 0.00 91 1011.3
20260506004521 56 360 0.0 0.0 0.00 0.00 0.00 91 1011.2
20260506003020 56 360 0.0 0.0 0.00 0.00 0.00 92 1011.2
20260506001521 57 360 0.0 0.0 0.00 0.00 0.00 92 1011.3
20260506000018 57 360 0.0 0.0 0.00 0.00 0.00 92 1011.3
20260505234518 57 360 0.0 0.0 0.00 0.00 0.00 92 1011.4
20260505233020 56 360 0.0 0.0 0.00 0.00 0.00 91 1011.4
20260505231516 56 360 0.0 0.0 0.00 0.00 0.00 91 1011.5
20260505230034 57 360 0.0 0.0 0.00 0.00 0.00 91 1011.4
20260505224515 57 360 0.0 0.0 0.00 0.00 0.00 91 1011.5
20260505223013 57 360 0.0 0.0 0.00 0.00 0.00 91 1011.7
20260505221513 56 360 0.0 0.0 0.00 0.00 0.00 91 1011.8
20260505220011 57 360 0.0 0.0 0.00 0.00 0.00 90 1011.7
20260505214511 56 360 0.0 0.0 0.00 0.00 0.21 90 1011.8
20260505213011 56 360 1.0 0.0 0.00 0.00 0.21 90 1011.9
20260505211509 56 360 0.0 0.0 0.00 0.00 0.21 89 1011.9
20260505210008 56 360 0.0 0.0 0.00 0.00 0.21 89 1012.1
20260505204507 57 360 0.0 0.0 0.00 0.00 0.21 89 1011.9
20260505203006 57 360 0.0 0.0 0.00 0.00 0.21 88 1011.9
20260505201508 57 360 0.0 0.0 0.00 0.00 0.21 88 1011.9
20260505200013 58 360 0.0 0.0 0.00 0.00 0.21 88 1011.8
20260505194506 58 360 0.0 0.0 0.00 0.00 0.21 87 1011.8
20260505193004 58 360 0.0 0.0 0.00 0.00 0.21 87 1011.5
20260505191505 59 360 0.0 0.0 0.00 0.00 0.21 86 1011.4
20260505190004 60 360 0.0 0.0 0.00 0.00 0.21 85 1011.3